Tracking 28799 objects as of 18-Apr-2024
HD Live streaming from Space Station
objects crossing your sky now

FENGYUN 1C DEB

Track FENGYUN 1C DEB now!
10-day predictions


NORAD ID: 36200
Int'l Code: 1999-025DTZ
Perigee: 752.3 km
Apogee: 830.8 km
Inclination: 99.4 °
Period: 100.5 minutes
Semi major axis: 7162 km
RCS: 0.0106 m2 (small)
Launch date: May 10, 1999
Source: People's Republic of China (PRC)
Launch site: Taiyaun Space Center, China (TSC)

Note: This is SATELLITE DEBRIS
Your satellite tracking list
Your tracking list is empty




NASA's NSSDC Master Catalog

Two Line Element Set (TLE):
1 36200U 99025DTZ 24106.25471689  .00019352  00000-0  70650-2 0  9991
2 36200  99.4208 109.0648 0054844 358.6616   1.4410 14.32189282645974
Source of the keplerian elements: AFSPC